Location: Bielsko-Biala
(49.8170°N, 19.0330°E)
Time: 02:23:58
(UTC+02:00)

ISS - Visible Passes

Search period start: 21 May 2024 00:00
Search period end: 31 May 2024 00:00
Orbit: 409 x 414 km, 51.6° (Epoch: 20 May)

Date Brightness Start Highest point End Pass type
(mag) Time Alt. Az. Time Alt. Az. Time Alt. Az.
21 May -3.6 22:35:42 10° WNW 22:38:57 52° SSW 22:40:02 34° SSE visible
22 May -3.8 21:45:39 10° WNW 21:48:59 74° SSW 21:51:45 14° ESE visible
22 May -1.8 23:22:51 10° W 23:24:32 17° SW 23:24:32 17° SW visible
23 May -2.5 22:32:27 10° W 22:35:20 27° SW 22:36:13 24° S visible
24 May -3.1 21:42:12 10° W 21:45:21 41° SSW 21:47:53 14° SE visible
25 May -1.6 22:29:33 10° WSW 22:31:21 14° SW 22:32:19 13° SSW visible
26 May -2.0 21:38:45 10° W 21:41:22 21° SW 21:43:57 10° SSE visible
28 May -1.1 21:36:23 10° SW 21:37:00 10° SW 21:37:36 10° SW visible
